Location: 22
(39.7117°N, 89.5929°W)
Time: 09:25:31
(UTC-05:00)

Transit 2A - Pass Details

Date: 05 August 2024
Orbit: 590 x 961 km, 66.7° (Epoch: 13 September)

Event Time Altitude Azimuth Distance (km) Brightness Sun altitude
Rises 15:19:35 0° 321° (NW) 3,650 9.6 52.7°
Reaches altitude 10° 15:22:25 10° 313° (NW) 2,699 9.1 52.2°
Maximum altitude 15:27:58 33° 252° (WSW) 1,539 9.3 51.3°
Drops below altitude 10° 15:33:18 10° 191° (S) 2,584 9.2 50.3°
Sets 15:35:57 0° 181° (S) 3,474 9.6 49.9°
